PBO Station Position Time Series. Reference Frame : NAM14
Format Version,1.1.0
4-character ID,NRC1
Station name,OTTAWA_NRC
Begin Date, 1996-01-01
End Date, 2019-10-07
Release Date, 2019-10-08
Reference position, 45.4541626992 North Latitude, -75.6238290724 East Longitude, 82.50301 meters elevation,
Date, North (mm), East (mm), Vertical (mm), North Std. Deviation (mm), East Std. Deviation (mm),              Vertical Std. Deviation (mm), Quality,
1996-01-01,0.00, 0.00, 0.00, 3.37, 2.67, 9.97, repro,
1996-01-02,0.29, -0.85, -14.74, 4.77, 3.99, 17.00, repro,
1996-01-03,2.41, -5.96, -8.31, 3.40, 2.65, 10.10, repro,
1996-01-04,-0.79, -2.64, -3.62, 3.42, 2.71, 10.46, repro,
1996-01-05,3.82, -9.96, -3.47, 3.97, 3.11, 12.18, repro,
1996-01-06,-5.41, 0.80, -18.05, 3.93, 2.90, 12.54, repro,
1996-01-07,-1.53, -4.62, -13.58, 3.27, 2.56, 10.33, repro,
1996-01-08,-1.95, -1.72, -3.47, 3.26, 2.57, 9.84, repro,
1996-01-09,0.53, -4.55, -1.84, 3.52, 2.90, 11.62, repro,
1996-01-10,-1.71, -10.89, -16.82, 3.82, 2.95, 12.04, repro,
1996-01-11,-1.84, -11.16, -14.50, 3.41, 2.71, 10.38, repro,
1996-01-12,-0.06, -3.61, -3.29, 3.23, 2.56, 9.74, repro,
1996-01-13,-0.46, -3.70, -18.56, 3.54, 2.87, 12.05, repro,
1996-01-14,-2.87, 0.50, -8.00, 3.33, 2.64, 10.59, repro,
1996-01-15,-2.88, -6.66, -25.03, 3.56, 2.84, 11.79, repro,
1996-01-16,-2.58, -5.74, -28.99, 3.94, 3.05, 13.33, repro,
1996-01-17,1.21, -0.19, -5.13, 3.52, 2.83, 11.66, repro,
1996-01-18,-4.39, 0.82, -13.03, 3.10, 2.40, 10.21, repro,
1996-01-19,-2.50, -1.38, -14.32, 3.29, 2.57, 10.75, repro,
1996-01-20,-3.83, -0.82, -17.66, 3.11, 2.54, 10.65, repro,
1996-01-21,-6.31, -12.56, -1.00, 4.68, 3.71, 15.29, repro,
1996-01-22,-3.14, 1.50, -7.46, 3.86, 3.04, 12.80, repro,
1996-01-23,-2.16, -9.11, -8.89, 3.47, 2.80, 11.72, repro,
1996-01-24,-2.80, -6.75, -21.41, 3.22, 2.63, 10.89, repro,
1996-01-25,-0.25, -12.78, -14.06, 3.98, 3.23, 14.71, repro,
1996-01-26,-4.49, -7.39, -24.37, 3.34, 2.82, 11.41, repro,
1996-01-27,2.06, -3.36, -19.13, 6.09, 4.75, 20.23, repro,
1996-01-28,-0.75, -4.24, -32.12, 3.34, 2.82, 11.82, repro,
1996-01-29,-1.93, -2.52, -27.23, 3.26, 2.46, 10.45, repro,
1996-01-30,-0.69, -5.41, -2.37, 2.99, 2.44, 10.10, repro,
1996-01-31,-2.56, -0.75, -15.92, 3.34, 2.50, 10.56, repro,
1996-02-01,-2.43, -10.94, -13.62, 3.98, 3.01, 13.24, repro,
1996-02-02,0.77, -11.32, -19.61, 2.96, 2.22, 9.14, repro,
1996-02-03,-3.05, -1.82, -0.68, 3.16, 2.44, 10.39, repro,
1996-02-04,-8.45, -0.71, -11.68, 4.21, 3.71, 14.12, repro,
1996-02-05,-5.32, -6.65, -22.14, 5.28, 3.91, 17.16, repro,
1996-02-06,-3.23, -4.30, -23.00, 2.94, 2.25, 9.46, repro,
1996-02-07,-1.75, -2.31, -7.93, 2.93, 2.28, 9.18, repro,
1996-02-08,-2.07, -1.74, 5.75, 2.88, 2.21, 8.98, repro,
1996-02-09,-3.21, 0.71, -4.43, 3.67, 3.19, 13.47, repro,
1996-02-10,-0.64, 0.48, 11.30, 3.77, 2.83, 12.48, repro,
1996-02-11,-5.12, -8.32, -3.39, 4.53, 3.59, 14.45, repro,
1996-02-12,-0.03, -8.94, -2.92, 4.08, 3.24, 13.97, repro,
1996-02-13,1.26, -3.61, -13.83, 3.80, 2.80, 11.67, repro,
1996-02-14,-0.95, -4.55, 5.34, 3.29, 2.56, 10.28, repro,
1996-02-15,-4.50, -5.32, 2.19, 3.74, 2.83, 12.38, repro,
1996-02-16,1.16, -2.84, -15.07, 3.85, 2.93, 12.53, repro,
1996-02-17,0.22, -5.71, -12.44, 3.51, 2.64, 11.47, repro,
1996-02-18,5.03, -12.67, -13.11, 3.82, 2.82, 12.29, repro,
1996-02-19,0.70, 7.34, -19.91, 3.84, 2.91, 12.22, repro,
1996-02-20,1.36, 0.60, 5.45, 3.77, 2.93, 12.45, repro,
1996-02-21,2.68, -4.00, -14.55, 3.93, 2.96, 12.35, repro,
1996-02-22,-6.37, -3.31, -25.87, 3.74, 2.79, 12.09, repro,
1996-02-23,2.58, -4.62, -25.01, 3.80, 2.79, 11.40, repro,
1996-02-24,0.74, -0.90, 11.26, 3.73, 2.78, 11.27, repro,
1996-02-25,-4.25, -5.38, -6.49, 3.85, 2.93, 12.26, repro,
1996-02-26,-7.48, 3.82, -2.75, 3.79, 2.91, 12.25, repro,
1996-02-27,3.68, -4.98, -8.00, 3.82, 2.90, 12.12, repro,
1996-02-28,-0.96, 2.29, 6.57, 3.78, 2.81, 11.89, repro,
1996-02-29,1.43, -2.94, -4.47, 3.94, 2.91, 11.91, repro,
1996-03-01,0.74, -5.94, -6.98, 3.49, 2.59, 10.76, repro,
1996-03-02,-9.51, 2.68, -22.35, 3.88, 2.84, 11.87, repro,
1996-03-04,-4.57, -1.25, -26.84, 3.79, 2.79, 11.88, repro,
1996-03-05,-1.61, 1.90, -6.89, 2.90, 2.24, 9.20, repro,
1996-03-06,-0.74, -6.36, -17.14, 3.04, 2.35, 9.71, repro,
1996-03-07,-3.23, -3.44, -14.87, 3.14, 2.40, 9.81, repro,
1996-03-08,0.36, -1.71, -25.63, 3.26, 2.39, 10.19, repro,
1996-09-06,1.48, -9.71, -11.63, 3.14, 2.49, 10.08, repro,
1996-10-12,-1.10, 3.78, -20.86, 2.61, 2.08, 8.26, repro,
1996-10-13,6.72, -5.67, -13.91, 2.81, 2.18, 8.59, repro,
1997-02-28,3.94, -2.14, -31.87, 2.73, 2.03, 9.07, repro,
1997-03-01,6.43, -0.47, -21.60, 2.82, 2.22, 9.29, repro,
1997-03-02,1.79, -2.53, -19.18, 2.62, 1.97, 8.75, repro,
1997-03-03,-0.31, -1.75, -35.65, 2.63, 1.96, 8.80, repro,
1997-03-04,0.72, -2.12, -39.11, 2.91, 2.17, 9.53, repro,
1997-03-05,0.54, -1.33, -36.85, 2.58, 2.01, 8.63, repro,
1997-03-06,-0.95, -1.80, -34.30, 2.60, 2.00, 8.90, repro,
1997-03-07,-1.13, -1.22, -31.98, 2.63, 1.90, 8.86, repro,
1997-03-08,2.75, -2.01, -39.64, 2.85, 2.15, 9.28, repro,
1997-03-09,0.83, -2.12, -39.16, 2.78, 2.12, 9.10, repro,
1997-03-10,-0.14, -1.62, -32.93, 2.77, 2.15, 9.37, repro,
1997-03-11,-0.87, -1.81, -38.23, 2.63, 1.99, 9.24, repro,
1997-03-12,0.85, -1.58, -43.60, 2.79, 2.07, 9.40, repro,
1997-03-13,0.76, -3.07, -41.84, 2.70, 2.07, 8.98, repro,
1997-03-14,1.06, -2.22, -36.15, 2.80, 2.08, 9.32, repro,
1997-03-15,-0.28, -0.33, -33.67, 2.64, 1.93, 8.84, repro,
1997-03-16,0.29, -1.25, -37.58, 2.65, 2.03, 8.69, repro,
1997-03-17,0.34, -0.67, -51.20, 2.46, 1.82, 8.32, repro,
1997-03-18,1.38, -1.86, -36.85, 2.64, 2.05, 8.63, repro,
1997-03-19,0.74, -2.01, -38.09, 2.71, 2.12, 9.01, repro,
1997-03-20,-0.78, -1.30, -31.38, 2.44, 1.85, 8.37, repro,
1997-03-21,1.28, -2.77, -25.13, 2.52, 1.88, 8.25, repro,
1997-03-22,1.52, -2.64, -28.64, 2.38, 1.80, 7.92, repro,
1997-03-23,-0.55, -3.57, -29.41, 2.36, 1.80, 7.80, repro,
1997-03-24,0.72, -2.27, -36.50, 2.77, 2.13, 9.72, repro,
1997-03-25,0.46, -0.28, -42.22, 2.63, 1.94, 8.62, repro,
1997-03-26,-0.66, 1.18, -35.02, 2.48, 1.92, 8.90, repro,
1997-03-27,1.70, -1.78, -30.29, 2.82, 2.23, 9.57, repro,
1997-03-28,0.82, -1.38, -32.17, 2.38, 1.79, 8.12, repro,
1997-03-29,1.87, -1.24, -30.03, 2.64, 2.06, 8.95, repro,
1997-03-30,1.70, -2.60, -25.50, 2.34, 1.78, 7.89, repro,
1997-03-31,0.08, -1.81, -22.96, 2.57, 1.95, 8.60, repro,
1997-04-01,1.03, -1.59, -39.80, 2.46, 1.80, 8.20, repro,
1997-04-02,0.22, -2.19, -38.38, 2.77, 2.13, 9.20, repro,
1997-04-03,0.85, -1.20, -31.40, 2.42, 1.86, 8.14, repro,
1997-04-04,0.20, -1.85, -32.41, 2.43, 1.83, 8.35, repro,
1997-04-05,1.00, -0.82, -41.33, 2.44, 1.80, 8.39, repro,
1997-04-06,2.14, -0.44, -28.09, 2.64, 2.04, 8.94, repro,
1997-04-07,0.52, -1.39, -35.92, 2.66, 2.01, 9.26, repro,
1997-04-08,2.06, -3.08, -30.81, 2.68, 2.10, 8.89, repro,
1997-04-09,0.98, -2.24, -36.07, 2.61, 2.07, 8.89, repro,
1997-04-10,2.39, -2.98, -35.93, 3.01, 2.37, 9.76, repro,
1997-04-11,0.35, -2.22, -41.02, 2.60, 2.03, 9.04, repro,
1997-04-12,1.18, -1.92, -35.83, 2.51, 1.96, 8.78, repro,
1997-04-13,-0.11, -0.29, -23.99, 2.46, 1.90, 8.53, repro,
1997-04-14,-0.09, -1.54, -35.91, 2.45, 1.89, 8.56, repro,
1997-04-15,1.62, -1.58, -32.28, 2.61, 2.06, 8.84, repro,
1997-04-16,2.88, -2.30, -25.09, 2.63, 2.07, 8.80, repro,
1997-04-17,0.54, -1.79, -35.14, 2.54, 1.92, 8.64, repro,
1997-04-18,1.49, -2.55, -29.73, 2.75, 2.11, 8.99, repro,
1997-04-19,1.18, -2.18, -30.81, 2.48, 1.83, 8.39, repro,
1997-04-20,0.43, -2.44, -26.21, 2.48, 1.88, 8.41, repro,
1997-04-21,2.05, -1.99, -31.12, 2.64, 2.07, 9.37, repro,
1997-04-22,1.48, -2.72, -21.17, 2.51, 1.97, 8.70, repro,
1997-04-23,1.42, -3.41, -20.95, 2.72, 2.14, 9.14, repro,
1997-04-24,0.78, -3.04, -24.59, 2.56, 1.97, 8.65, repro,
1997-04-25,1.50, -1.50, -26.31, 2.73, 2.10, 8.95, repro,
1997-04-26,0.94, -2.28, -32.65, 2.61, 2.01, 8.77, repro,
1997-04-27,1.85, -1.90, -33.30, 2.46, 1.84, 8.40, repro,
1997-04-28,1.91, -1.98, -15.43, 2.60, 2.02, 8.54, repro,
1997-04-29,2.47, -1.42, -19.62, 2.53, 2.01, 8.61, repro,
1997-04-30,0.06, -1.96, -17.47, 2.49, 1.89, 8.21, repro,
1997-05-01,1.36, -3.02, -18.51, 2.90, 2.15, 9.14, repro,
1997-05-02,1.03, -2.13, -29.21, 2.48, 1.86, 8.42, repro,
1997-05-03,1.21, -2.35, -24.38, 3.11, 2.21, 9.30, repro,
1997-05-04,0.09, -1.81, -23.55, 3.04, 2.12, 9.29, repro,
1997-05-05,0.68, -0.94, -35.84, 2.78, 2.14, 9.14, repro,
1997-05-06,-0.24, -1.45, -29.82, 2.43, 1.84, 8.27, repro,
1997-05-07,1.00, -2.61, -27.21, 2.60, 1.98, 8.39, repro,
1997-05-08,0.72, -2.44, -32.27, 2.34, 1.75, 7.91, repro,
1997-05-09,0.01, -2.02, -30.04, 2.35, 1.76, 7.94, repro,
1997-05-10,-0.06, -1.90, -27.21, 2.70, 1.98, 8.56, repro,
1997-05-11,-1.05, -2.04, -24.12, 2.39, 1.77, 8.09, repro,
1997-05-12,-0.14, -2.69, -26.90, 2.40, 1.77, 8.16, repro,
1997-05-13,0.96, -1.35, -22.10, 2.34, 1.72, 7.83, repro,
1997-05-14,0.24, -2.05, -24.78, 2.37, 1.79, 8.01, repro,
1997-05-15,0.96, -1.71, -23.94, 2.38, 1.78, 8.14, repro,
1997-05-16,-0.01, -2.01, -26.27, 2.39, 1.77, 8.12, repro,
1997-05-17,0.76, -2.00, -29.29, 2.49, 1.82, 8.29, repro,
1997-05-18,-0.09, -2.46, -27.27, 2.44, 1.83, 8.29, repro,
1997-05-19,1.31, -2.24, -22.48, 2.49, 1.87, 8.43, repro,
1997-05-20,0.05, -3.07, -24.53, 2.51, 1.89, 8.55, repro,
1997-05-21,-0.53, -1.50, -26.58, 2.52, 1.79, 8.33, repro,
1997-05-22,-0.05, -3.14, -28.33, 2.48, 1.81, 8.37, repro,
1997-05-23,0.74, -2.20, -30.55, 2.50, 1.86, 8.49, repro,
1997-05-24,0.24, -2.46, -23.03, 2.42, 1.78, 8.18, repro,
1997-05-25,2.24, -3.34, -27.59, 2.44, 1.81, 8.31, repro,
1997-05-26,0.51, -2.57, -30.66, 2.50, 1.84, 8.56, repro,
1997-05-27,1.62, -1.19, -35.26, 2.55, 1.90, 8.77, repro,
1997-05-28,1.68, -2.34, -36.89, 2.39, 1.76, 8.11, repro,
1997-05-29,1.14, -1.61, -26.28, 2.36, 1.75, 8.02, repro,
1997-05-30,1.63, -1.89, -31.37, 2.39, 1.77, 8.10, repro,
1997-05-31,1.95, -2.14, -26.26, 2.39, 1.75, 8.14, repro,
1997-06-01,1.57, -1.49, -31.59, 2.38, 1.76, 8.21, repro,
1997-06-02,2.60, -1.55, -27.97, 2.47, 1.77, 8.18, repro,
1997-06-03,2.12, -3.14, -37.87, 2.44, 1.76, 8.25, repro,
1997-06-04,0.21, -3.10, -26.35, 2.47, 1.78, 8.24, repro,
1997-06-05,0.95, -2.66, -33.49, 2.37, 1.74, 7.91, repro,
1997-06-06,-0.07, -1.61, -24.76, 2.44, 1.75, 8.13, repro,
1997-06-07,2.67, -1.40, -32.41, 2.42, 1.74, 8.29, repro,
1997-06-08,2.00, -2.20, -20.45, 2.53, 1.84, 8.46, repro,
1997-06-09,0.48, -3.24, -31.44, 2.57, 1.85, 8.49, repro,
1997-06-10,-0.27, -3.81, -23.96, 2.69, 1.91, 8.86, repro,
1997-06-11,2.13, -2.51, -24.85, 2.50, 1.86, 8.43, repro,
1997-06-12,2.91, -1.30, -14.00, 2.70, 2.01, 8.94, repro,
1997-06-13,2.04, -3.35, -9.99, 2.55, 1.85, 8.56, repro,
1997-06-14,1.49, -3.11, -19.20, 2.76, 2.02, 9.48, repro,
1997-06-15,0.50, -1.78, -15.32, 2.65, 1.96, 8.88, repro,
1997-06-16,-0.98, -1.82, -5.68, 2.51, 1.81, 8.26, repro,
1997-06-17,-1.68, -4.48, -18.91, 2.46, 1.78, 8.11, repro,
1997-06-18,0.08, -3.53, -19.72, 2.46, 1.79, 8.04, repro,
1997-06-19,3.07, -5.72, -11.04, 2.56, 1.87, 8.28, repro,
1997-06-20,0.64, -4.32, -5.41, 2.78, 2.19, 9.63, repro,
1997-06-21,-0.26, -2.46, -5.41, 2.56, 1.95, 8.62, repro,
1997-06-22,1.39, -2.42, -14.71, 2.50, 1.83, 8.33, repro,
1997-06-23,0.80, -1.74, -23.99, 2.37, 1.76, 8.05, repro,
1997-06-24,1.96, -1.42, -16.67, 2.51, 1.82, 8.01, repro,
1997-06-25,-2.16, -3.08, -11.88, 2.76, 1.95, 8.69, repro,
1997-06-26,0.75, -2.01, -11.39, 2.45, 1.82, 8.23, repro,
1997-06-27,1.80, -2.59, -16.93, 2.43, 1.78, 8.16, repro,
1997-06-28,3.11, -2.13, -20.08, 2.41, 1.75, 8.06, repro,
1997-06-29,-0.19, -0.85, -16.65, 2.39, 1.77, 8.16, repro,
1997-06-30,1.55, -1.47, -14.05, 2.38, 1.74, 8.01, repro,
1997-07-01,0.79, -1.27, -20.38, 2.46, 1.89, 8.52, repro,
1997-07-02,-0.08, -1.18, -23.46, 2.52, 1.90, 8.70, repro,
1997-07-03,0.20, -3.22, 11.21, 2.58, 1.95, 8.45, repro,
1997-07-04,2.78, -1.95, -0.47, 2.35, 1.74, 7.84, repro,
1997-07-05,0.36, -0.40, -14.77, 2.40, 1.79, 8.45, repro,
1997-07-06,1.98, -1.81, -13.37, 2.37, 1.76, 7.84, repro,
1997-07-07,-0.88, -0.22, -12.47, 2.36, 1.76, 7.86, repro,
1997-07-08,0.40, -1.13, -20.79, 2.40, 1.81, 8.32, repro,
1997-07-09,1.98, -2.18, -7.07, 2.36, 1.76, 7.80, repro,
1997-07-10,-0.24, -0.97, -22.50, 2.40, 1.77, 8.24, repro,
1997-07-11,0.57, -1.70, -25.85, 2.59, 1.90, 8.64, repro,
1997-07-12,0.44, -2.00, -19.26, 2.45, 1.78, 8.18, repro,
1997-07-13,-2.84, -0.40, -11.95, 2.43, 1.79, 8.19, repro,
1997-07-14,0.07, -1.13, -3.49, 2.42, 1.82, 8.14, repro,
1997-07-15,-0.86, -0.44, -7.27, 2.49, 1.88, 8.49, repro,
1997-07-16,2.26, -3.44, -10.36, 2.44, 1.82, 8.29, repro,
1997-07-17,-1.17, -0.32, -14.16, 2.44, 1.80, 8.17, repro,
1997-07-18,3.42, 0.71, -8.01, 2.43, 1.82, 8.21, repro,
1997-07-19,-1.96, 0.20, -14.80, 2.43, 1.83, 8.08, repro,
1997-07-20,1.79, -1.89, -19.67, 2.40, 1.76, 8.01, repro,
1997-07-21,0.44, -1.53, -14.46, 2.39, 1.75, 7.79, repro,
1997-07-22,1.15, -1.21, -8.89, 2.49, 1.85, 8.32, repro,
1997-07-23,1.58, -1.27, -21.83, 2.58, 1.85, 8.46, repro,
1997-07-24,1.70, -1.18, -16.86, 2.49, 1.79, 8.16, repro,
1997-07-25,1.31, -1.29, -17.33, 2.43, 1.82, 8.20, repro,
1997-07-26,3.03, -3.58, -18.33, 2.50, 1.82, 8.34, repro,
1997-07-27,0.99, -1.91, -10.52, 2.43, 1.79, 8.08, repro,
1997-07-28,2.26, -1.50, -7.58, 2.61, 1.93, 8.63, repro,
1997-07-29,-0.69, -2.49, -11.21, 2.44, 1.81, 8.15, repro,
1997-07-30,0.96, -2.10, -10.35, 2.46, 1.81, 8.11, repro,
1997-07-31,1.56, -1.91, -16.92, 2.64, 1.86, 8.42, repro,
1997-08-01,-1.16, -3.59, -8.55, 2.58, 1.82, 8.38, repro,
1997-08-02,0.20, -2.37, -11.04, 2.40, 1.74, 7.83, repro,
1997-08-03,1.17, -1.99, 4.65, 2.44, 1.77, 7.92, repro,
1997-08-04,-0.70, -2.59, -11.27, 2.61, 1.88, 8.47, repro,
1997-08-05,0.34, -0.95, -18.27, 2.49, 1.77, 8.01, repro,
1997-08-06,-0.13, -2.00, -12.21, 2.60, 1.84, 8.22, repro,
1997-08-07,1.38, -2.90, -3.16, 2.52, 1.79, 8.11, repro,
1997-08-08,1.58, -2.78, -9.30, 2.60, 1.90, 8.64, repro,
1997-08-09,0.13, -3.24, -4.44, 2.48, 1.79, 8.01, repro,
1997-08-10,0.19, -1.91, -8.62, 2.46, 1.78, 8.01, repro,
1997-08-11,0.90, -2.76, -0.84, 2.47, 1.77, 7.91, repro,
1997-08-12,0.88, -1.43, -13.86, 2.94, 1.99, 9.30, repro,
1997-08-13,-1.11, -1.80, -14.78, 2.78, 1.99, 9.20, repro,
1997-08-14,1.41, 0.32, -2.64, 2.96, 2.13, 9.72, repro,
1997-08-15,2.40, 0.94, -18.24, 2.85, 2.10, 9.44, repro,
1997-08-16,3.35, 0.76, -7.43, 2.47, 1.81, 8.19, repro,
1997-08-17,-0.42, 0.43, -8.94, 2.58, 1.93, 8.66, repro,
1997-08-18,-0.03, -2.19, -10.35, 2.50, 1.80, 8.11, repro,
1997-08-19,0.25, -2.05, -14.98, 2.55, 1.80, 8.09, repro,
1997-08-20,-1.03, -1.98, -11.52, 2.68, 1.85, 8.51, repro,
1997-08-21,1.60, -1.78, -6.41, 2.57, 1.85, 8.20, repro,
1997-08-22,-1.48, -0.51, -9.58, 2.54, 1.83, 8.31, repro,
1997-08-23,1.30, 0.06, -3.67, 2.76, 2.42, 9.05, repro,
1997-08-24,0.01, -3.42, -15.80, 2.73, 1.93, 8.57, repro,
1997-08-25,-0.03, -1.29, -14.32, 2.62, 1.87, 8.43, repro,
1997-08-26,-1.02, -0.83, -13.10, 2.69, 1.99, 8.94, repro,
1997-08-27,2.34, -0.48, -10.99, 2.75, 2.02, 8.72, repro,
1997-08-28,-0.12, -1.48, -14.46, 2.60, 1.90, 8.86, repro,
1997-08-29,-1.39, -1.10, -10.79, 2.58, 1.87, 8.44, repro,
1997-08-30,-1.10, -1.31, -12.17, 2.47, 1.79, 8.01, repro,
1997-08-31,0.32, -0.61, -10.40, 2.65, 1.92, 8.40, repro,
1997-09-01,2.18, -2.70, -18.22, 2.40, 1.76, 7.83, repro,
1997-09-02,2.91, -2.19, -8.67, 2.49, 1.86, 8.35, repro,
1997-09-03,3.40, -1.79, -12.60, 2.90, 2.27, 9.78, repro,
1997-09-04,-0.26, -0.85, -12.83, 2.50, 1.88, 7.92, repro,
1997-09-05,0.08, -2.11, -15.36, 2.36, 1.73, 7.84, repro,
1997-09-06,-0.76, -3.53, -14.10, 2.44, 1.83, 8.09, repro,
1997-09-07,1.25, -2.59, -11.02, 2.47, 1.86, 8.16, repro,
1997-09-08,0.82, -1.94, -17.23, 2.37, 1.72, 7.71, repro,
1997-09-09,0.48, -1.40, -1.08, 2.45, 1.81, 8.32, repro,
1997-09-10,0.11, -2.51, -15.70, 2.37, 1.74, 8.09, repro,
1997-09-12,2.39, -2.18, -10.35, 2.45, 1.82, 8.24, repro,
1997-09-13,-1.16, -2.04, -13.51, 2.42, 1.78, 7.95, repro,
1997-09-14,0.49, -2.22, -15.07, 2.46, 1.78, 7.97, repro,
1997-09-15,2.26, -1.84, -16.49, 2.41, 1.78, 7.87, repro,
1997-09-16,1.23, -1.78, -13.01, 2.41, 1.79, 8.13, repro,
1997-09-17,0.60, -3.33, -11.63, 2.55, 1.83, 8.57, repro,
1997-09-18,-0.45, -3.21, -8.55, 2.77, 2.05, 9.38, repro,
1997-09-19,1.09, -2.67, 0.70, 2.59, 1.89, 8.71, repro,
1997-09-20,0.02, -0.92, -10.95, 2.69, 1.93, 8.90, repro,
1997-09-21,0.27, -1.92, -15.43, 2.59, 1.88, 8.69, repro,
1997-09-22,-0.26, -2.49, -17.80, 2.67, 1.89, 8.60, repro,
1997-09-23,1.89, -2.07, 0.90, 2.92, 2.16, 10.15, repro,
1997-09-24,0.07, -3.56, -10.27, 6.94, 5.53, 22.13, repro,
1997-09-25,0.79, -0.58, -3.39, 2.63, 1.98, 8.94, repro,
1997-09-26,0.68, -1.45, -12.29, 2.92, 2.17, 9.55, repro,
1997-09-27,0.46, -1.71, -6.84, 2.71, 1.93, 8.83, repro,
1997-09-28,0.80, -0.62, -10.03, 2.63, 1.93, 8.99, repro,
1997-09-29,-0.76, -1.38, 2.77, 2.70, 2.01, 9.01, repro,
1997-09-30,1.21, -2.44, 3.71, 2.62, 1.93, 8.48, repro,
1997-10-01,-0.46, -0.37, -13.71, 2.59, 1.90, 8.22, repro,
1997-10-02,0.87, -1.63, -15.59, 2.41, 1.77, 7.75, repro,
1997-10-03,1.81, -2.02, -12.67, 2.58, 1.83, 8.19, repro,
1997-10-04,-0.12, -0.88, -10.46, 2.52, 1.86, 8.10, repro,
1997-10-05,0.96, -0.47, -12.64, 2.48, 1.82, 8.10, repro,
1997-10-06,0.46, -1.44, -17.05, 2.49, 1.77, 7.94, repro,
1997-10-07,1.76, -1.76, -20.65, 2.46, 1.84, 8.51, repro,
1997-10-08,2.51, -2.11, -21.31, 2.45, 1.83, 8.31, repro,
1997-10-09,0.29, -0.79, -17.84, 2.40, 1.73, 8.07, repro,
1997-10-10,-0.81, -1.24, -12.29, 2.69, 1.95, 9.20, repro,
1997-10-11,1.30, -2.26, -23.98, 2.48, 1.84, 7.98, repro,
1997-10-12,1.88, -0.73, -26.37, 2.47, 1.82, 8.41, repro,
1997-10-13,0.62, -1.95, -22.61, 2.49, 1.90, 8.42, repro,
1997-10-14,2.36, -0.69, -32.60, 2.55, 1.91, 8.91, repro,
1997-10-15,0.51, -1.81, -32.43, 2.51, 1.88, 8.79, repro,
1997-10-16,-0.16, -0.27, -33.34, 2.55, 1.91, 8.72, repro,
1997-10-17,0.57, -0.65, -24.36, 2.67, 2.12, 9.37, repro,
1997-10-18,1.27, -1.43, -22.64, 2.55, 1.92, 8.63, repro,
1997-10-19,0.41, -1.23, -24.81, 2.56, 1.99, 8.96, repro,
1997-10-20,0.65, -0.56, -21.58, 2.50, 1.89, 8.91, repro,
1997-10-21,0.32, -2.15, -26.28, 2.61, 1.99, 9.29, repro,
1997-10-22,0.69, -1.43, -19.15, 2.45, 1.86, 8.62, repro,
1997-10-23,-0.21, -2.57, -15.63, 2.62, 2.02, 9.46, repro,
1997-10-24,0.15, -0.84, -14.86, 2.40, 1.81, 8.35, repro,
1997-10-25,0.22, -1.85, -24.20, 2.81, 2.11, 9.49, repro,
1997-10-26,0.10, -2.11, -15.97, 2.57, 1.89, 8.64, repro,
1997-10-27,-0.02, 0.41, -18.98, 2.53, 1.91, 8.93, repro,
1997-10-28,1.35, -1.95, -25.99, 2.68, 2.01, 9.16, repro,
1997-10-29,0.98, -1.31, -20.38, 2.60, 1.94, 8.92, repro,
1997-10-30,0.40, -1.09, -22.52, 2.66, 2.01, 9.34, repro,
1997-10-31,0.62, -2.12, -24.61, 2.68, 2.03, 9.45, repro,
1997-11-01,1.86, -2.83, -26.49, 2.51, 1.90, 8.65, repro,
1997-11-03,1.41, -1.06, -20.49, 2.58, 2.03, 9.43, repro,
1997-11-04,0.26, -2.32, -22.29, 2.64, 2.09, 9.56, repro,
1997-11-05,-0.63, -0.95, -36.75, 2.77, 2.21, 10.00, repro,
1997-11-06,-0.83, -1.07, -31.02, 2.82, 2.24, 10.36, repro,
1997-11-07,1.55, -1.02, -28.01, 2.85, 2.31, 10.56, repro,
1997-11-08,2.75, -1.16, -24.75, 2.65, 2.04, 9.19, repro,
1997-11-09,2.24, -2.02, -24.67, 2.47, 1.88, 8.49, repro,
1997-11-10,1.70, -1.98, -25.17, 2.43, 1.85, 8.45, repro,
1997-11-11,-0.21, -1.17, -23.41, 2.88, 2.18, 9.91, repro,
1997-11-12,-0.56, -1.23, -21.49, 2.49, 1.90, 8.82, repro,
1997-11-13,2.26, -1.30, -30.85, 2.52, 1.91, 8.58, repro,
1997-11-14,-0.71, -1.07, -19.39, 2.68, 2.16, 9.77, repro,
1997-11-15,0.96, 0.33, -29.55, 2.45, 1.87, 8.62, repro,
1997-11-16,0.63, -2.02, -28.21, 3.56, 2.82, 13.58, repro,
1997-11-17,1.27, 0.69, -37.54, 3.07, 2.42, 10.95, repro,
1997-11-18,0.54, 0.71, -38.90, 2.85, 2.20, 10.44, repro,
1997-11-19,1.49, -0.51, -31.14, 2.84, 2.25, 10.27, repro,
1997-11-20,-0.62, 0.29, -24.78, 2.64, 2.04, 9.40, repro,
1997-11-21,0.46, -4.75, -37.60, 2.60, 2.08, 9.47, repro,
1997-11-22,-1.41, -1.28, -39.66, 3.30, 2.50, 11.35, repro,
1997-11-23,-0.35, 0.33, -22.08, 2.98, 2.40, 11.00, repro,
1997-11-24,-1.65, -1.78, -32.33, 2.62, 2.00, 9.20, repro,
1997-11-25,3.35, -0.80, -26.46, 2.63, 2.00, 9.33, repro,
1997-11-26,0.88, -2.77, -20.07, 2.74, 2.10, 9.91, repro,
1997-11-27,3.45, 3.96, -19.92, 2.59, 1.93, 8.86, repro,
1997-11-28,3.12, 1.40, -23.18, 2.52, 1.88, 8.89, repro,
1997-11-29,3.96, -2.01, -43.29, 2.50, 1.92, 8.78, repro,
1997-11-30,1.21, -3.20, -14.12, 2.43, 1.77, 8.10, repro,
1997-12-01,0.02, -2.65, -24.80, 2.53, 1.88, 8.90, repro,
1997-12-02,0.53, -0.60, -27.42, 2.45, 1.79, 8.52, repro,
1997-12-03,2.49, -2.13, -31.86, 2.52, 1.84, 8.79, repro,
1997-12-04,1.68, -2.38, -18.10, 2.46, 1.83, 8.70, repro,
1997-12-05,2.87, -3.21, -23.62, 2.54, 1.89, 8.90, repro,
1997-12-06,0.82, -1.82, -21.00, 2.53, 1.89, 8.84, repro,
1997-12-07,1.99, -1.68, -24.57, 2.35, 1.75, 8.16, repro,
1997-12-08,-0.06, -1.69, -31.51, 2.50, 1.86, 8.87, repro,
1997-12-09,0.41, -2.84, -19.54, 2.37, 1.75, 7.81, repro,
1997-12-10,-0.02, -1.68, -24.83, 2.51, 1.85, 8.76, repro,
1997-12-11,1.07, -0.57, -26.99, 2.40, 1.77, 8.22, repro,
1997-12-12,0.39, -1.48, -21.44, 2.39, 1.72, 8.20, repro,
1997-12-13,-0.44, -2.12, -18.96, 2.36, 1.71, 8.11, repro,
1997-12-14,-0.55, -0.89, -24.18, 2.38, 1.71, 8.29, repro,
1997-12-15,-1.16, -0.63, -17.69, 2.69, 1.94, 9.35, repro,
1997-12-16,-1.52, -1.20, -17.77, 2.38, 1.79, 8.62, repro,
1997-12-17,-0.52, -1.80, -23.56, 2.34, 1.79, 8.38, repro,
1997-12-18,0.63, -0.64, -34.49, 2.52, 1.88, 8.46, repro,
1997-12-19,-0.03, -1.23, -25.35, 2.41, 1.82, 8.39, repro,
1997-12-20,1.31, -1.91, -19.46, 2.56, 2.04, 8.94, repro,
1997-12-21,-1.09, -1.11, -37.36, 2.57, 1.95, 9.09, repro,
1997-12-22,-0.31, -1.59, -34.67, 2.37, 1.80, 8.61, repro,
1997-12-23,-3.64, -1.54, -32.24, 2.47, 1.86, 8.66, repro,
1997-12-24,-1.47, -1.79, -37.09, 2.46, 1.88, 8.82, repro,
1997-12-25,2.49, -1.37, -22.77, 2.45, 1.95, 8.98, repro,
1997-12-26,9.42, -4.07, -31.26, 2.59, 2.07, 9.35, repro,
1997-12-27,3.53, -3.67, -25.47, 2.48, 1.91, 8.89, repro,
1997-12-28,-0.58, -1.28, -24.27, 2.51, 1.91, 8.81, repro,
1997-12-29,-0.48, -0.99, -20.45, 2.53, 1.98, 9.38, repro,
1997-12-30,-0.13, -3.32, -8.54, 2.51, 1.97, 8.97, repro,
1997-12-31,-1.26, -3.58, -13.57, 2.51, 1.91, 8.67, repro,
1998-01-01,-1.92, -2.26, -23.57, 2.54, 2.03, 9.41, repro,
1998-01-02,-2.05, -3.63, -29.01, 2.48, 1.98, 9.08, repro,
1998-01-03,-1.44, -1.88, -21.58, 2.48, 2.02, 9.10, repro,
1998-01-04,-0.12, -2.11, -29.33, 2.29, 1.76, 7.84, repro,
1998-01-05,-0.27, -1.87, -29.32, 2.41, 1.81, 8.23, repro,
1998-01-06,-2.44, -8.75, -21.47, 2.48, 1.78, 8.21, repro,
1998-01-07,-1.93, -1.53, -11.86, 2.58, 1.89, 8.59, repro,
1998-01-08,-2.59, -11.84, 11.09, 2.73, 2.09, 9.46, repro,
1998-01-09,-7.32, -23.28, 28.90, 2.49, 1.90, 8.14, repro,
1998-01-10,-11.64, -21.47, 57.89, 2.66, 2.01, 9.00, repro,
1998-01-11,4.01, 1.44, -28.73, 2.55, 1.99, 9.22, repro,
1998-01-12,3.80, 2.71, -32.77, 2.47, 1.97, 8.72, repro,
1998-01-13,4.24, 0.57, -35.23, 2.52, 1.86, 8.48, repro,
1998-01-14,2.50, -2.82, -44.02, 2.42, 1.88, 8.45, repro,
1998-01-15,1.92, -1.32, -40.77, 2.51, 1.97, 9.13, repro,
1998-01-16,0.48, -2.51, -34.73, 2.81, 2.03, 9.27, repro,
1998-01-17,-0.88, -4.72, -39.21, 2.41, 1.86, 8.21, repro,
1998-01-18,-3.06, -6.81, -36.74, 2.41, 1.87, 8.18, repro,
1998-01-19,-1.95, -6.74, -45.54, 2.33, 1.78, 7.79, repro,
1998-01-20,-1.10, -7.94, -36.82, 2.25, 1.68, 7.58, repro,
1998-01-21,-1.22, -9.23, -42.04, 2.35, 1.80, 7.84, repro,
1998-01-22,-2.24, -9.68, -49.40, 2.35, 1.73, 7.66, repro,
1998-01-23,-3.19, -10.23, -53.18, 2.41, 1.78, 7.98, repro,
1998-01-24,-3.82, -9.57, -44.76, 2.34, 1.79, 7.82, repro,
1998-01-25,-4.07, -11.28, -52.78, 2.35, 1.77, 8.05, repro,
1998-01-26,-8.84, -10.29, -42.93, 2.32, 1.73, 7.62, repro,
1998-01-27,-10.12, -9.39, -42.73, 2.32, 1.74, 7.68, repro,
1998-01-28,-9.98, -8.69, -47.42, 2.49, 1.92, 8.31, repro,
1998-01-29,-11.85, -2.38, -32.13, 2.33, 1.78, 7.75, repro,
1998-01-30,-8.50, 4.38, -38.51, 2.34, 1.81, 7.92, repro,
1998-01-31,7.65, 16.00, -35.77, 2.49, 1.92, 8.01, repro,
1998-02-01,10.72, 10.08, -35.78, 2.46, 1.88, 7.89, repro,
1998-02-02,-0.49, -4.17, -33.17, 2.32, 1.77, 7.78, repro,
1998-02-03,-0.97, -3.64, -29.77, 2.30, 1.74, 7.79, repro,
1998-02-04,-0.67, -2.28, -30.40, 2.34, 1.80, 8.00, repro,